Weather History for New Haven, CT

Change the Weather History Date:

Wednesday, October 24, 2012

  Actual Average Record
Temperature  
Mean Temperature 56 °F -  
Max Temperature 57 °F 56 °F 78 °F (1978)
Min Temperature 55 °F 41 °F 27 °F (1969)
Degree Days  
Heating Degree Days 9    
Growing Degree Days 6 (Base 50)    
Moisture  
Dew Point 50 °F    
Average Humidity 80    
Maximum Humidity 94    
Minimum Humidity 65    
Precipitation  
Precipitation 0.02 in - - ()
Sea Level Pressure  
Sea Level Pressure 30.15 in    
Wind  
Wind Speed 4 mph (NNE)    
Max Wind Speed 7 mph    
Max Gust Speed -    
Visibility 9 miles    
Events Rain    
Averages and records for this station are not official NWS values.
T = Trace of Precipitation, MM = Missing Value Source: NWS Daily Summary

Daily Weather History Graph

Daily Weather History Graph

Search for Another Location

Airport:

Trip Planner

Search our weather history database for the weather conditions in past years. The results will help you decide how hot, cold, wet, or windy it might be!

Date:

Astronomy

Oct. 24, 2012 Rise Set
Actual Time 7:13 AM EDT 5:56 PM EDT
Civil Twilight 6:45 AM EDT 6:24 PM EDT
Nautical Twilight 6:13 AM EDT 6:57 PM EDT
Astronomical Twilight 5:41 AM EDT 7:29 PM EDT
Moon 3:13 PM EDT (10/24) 2:03 AM EDT (10/24)
Length of Visible Light 11h 39m
Length of Day
10h 42m
Waxing Gibbous, 76% of the Moon is Illuminated
Oct 24
Waxing Gibbous
Oct 29
Full
Nov 6
Last Quarter
Nov 13
New
Nov 20
First Quarter

Hourly Weather History & Observations

Time (EDT) Temp. Dew Point Humidity Pressure Visibility Wind Dir Wind Speed Gust Speed Precip Events Conditions
12:26 AM 55.4 °F 53.6 °F 94% 30.11 in 7.0 mi Calm Calm - N/A Rain Light Rain
12:53 AM 55.0 °F 53.1 °F 93% 30.12 in 7.0 mi North 6.9 mph - 0.00 in   Overcast
1:05 AM 55.4 °F 53.6 °F 94% 30.12 in 8.0 mi NNE 4.6 mph - N/A   Overcast
1:33 AM 55.4 °F 53.6 °F 94% 30.12 in 6.0 mi NNE 3.5 mph - 0.00 in Rain Light Rain
1:53 AM 55.4 °F 51.8 °F 88% 30.12 in 5.0 mi North 5.8 mph - N/A   Overcast
2:53 AM 55.0 °F 52.0 °F 89% 30.12 in 4.0 mi NNE 4.6 mph - N/A   Overcast
3:53 AM 55.0 °F 53.1 °F 93% 30.12 in 7.0 mi Calm Calm - 0.01 in   Overcast
4:22 AM 55.4 °F 53.6 °F 94% 30.13 in 7.0 mi North 3.5 mph - N/A   Overcast
4:53 AM 55.0 °F 53.1 °F 93% 30.12 in 10.0 mi NNE 4.6 mph - 0.01 in   Overcast
5:53 AM 55.0 °F 52.0 °F 89% 30.13 in 6.0 mi NE 3.5 mph - N/A   Overcast
6:53 AM 55.0 °F 52.0 °F 89% 30.14 in 6.0 mi NE 4.6 mph - N/A   Overcast
7:53 AM 55.0 °F 51.1 °F 86% 30.16 in 10.0 mi NE 5.8 mph - N/A   Overcast
8:53 AM 55.0 °F 52.0 °F 89% 30.16 in 10.0 mi NNE 4.6 mph - N/A   Overcast
9:53 AM 55.9 °F 52.0 °F 87% 30.16 in 10.0 mi NNE 5.8 mph - 0.00 in   Overcast
10:53 AM 55.9 °F 50.0 °F 80% 30.16 in 10.0 mi NE 5.8 mph - N/A   Overcast
11:53 AM 57.0 °F 48.9 °F 74% 30.15 in 10.0 mi NNE 6.9 mph - N/A   Overcast
12:53 PM 57.9 °F 48.9 °F 72% 30.14 in 10.0 mi North 4.6 mph - N/A   Overcast
1:53 PM 57.9 °F 46.9 °F 67% 30.14 in 10.0 mi NNE 5.8 mph - N/A   Overcast
2:53 PM 57.9 °F 46.0 °F 65% 30.13 in 10.0 mi NNE 4.6 mph - N/A   Overcast
3:53 PM 57.9 °F 46.0 °F 65% 30.14 in 10.0 mi North 5.8 mph - N/A   Overcast
4:53 PM 57.9 °F 46.0 °F 65% 30.14 in 10.0 mi North 3.5 mph - N/A   Overcast
5:53 PM 57.0 °F 46.0 °F 67% 30.15 in 10.0 mi North 3.5 mph - N/A   Overcast
6:53 PM 57.0 °F 46.9 °F 69% 30.18 in 10.0 mi North 4.6 mph - N/A   Overcast
7:53 PM 55.9 °F 46.0 °F 69% 30.19 in 10.0 mi NNE 3.5 mph - N/A   Overcast
8:53 PM 55.9 °F 46.0 °F 69% 30.19 in 10.0 mi Calm Calm - N/A   Overcast
9:53 PM 55.9 °F 46.0 °F 69% 30.21 in 10.0 mi NNE 5.8 mph - N/A   Overcast
10:53 PM 55.9 °F 46.0 °F 69% 30.22 in 10.0 mi North 4.6 mph - N/A   Overcast
11:53 PM 55.0 °F 46.0 °F 72% 30.21 in 10.0 mi Calm Calm - N/A   Overcast